| time (UTC) | temp C | wind direction | speed KPH | gust KPH | rain 1hr cm | rain 24hr cm | rain mn cm | humidity % | barometer mb |
| 20260506084206 | 9 | 324 | 4.8 | 12.9 | 0.00 | 0.00 | 0.00 | 35 | 1009.7 |
| 20260506083236 | 8 | 304 | 6.4 | 14.5 | 0.00 | 0.00 | 0.00 | 37 | 1009.7 |
| 20260506081749 | 8 | 328 | 9.7 | 16.1 | 0.00 | 0.00 | 0.00 | 39 | 1009.6 |
| 20260506080449 | 8 | 351 | 9.7 | 19.3 | 0.00 | 0.00 | 0.00 | 39 | 1009.6 |
| 20260506073224 | 8 | 265 | 6.4 | 12.9 | 0.00 | 0.00 | 0.00 | 42 | 1009.4 |
| 20260506072312 | 8 | 315 | 9.7 | 16.1 | 0.00 | 0.00 | 0.00 | 43 | 1009.3 |
| 20260506070954 | 7 | 313 | 8.0 | 16.1 | 0.00 | 0.00 | 0.00 | 46 | 1009.2 |
| 20260506061919 | 7 | 291 | 4.8 | 8.0 | 0.00 | 0.00 | 0.00 | 54 | 1009.0 |
| 20260506060519 | 6 | 283 | 6.4 | 12.9 | 0.00 | 0.00 | 0.00 | 56 | 1008.8 |
| 20260506051134 | 5 | 315 | 9.7 | 16.1 | 0.00 | 0.00 | 0.00 | 65 | 1008.2 |
| 20260506044236 | 4 | 300 | 4.8 | 11.3 | 0.00 | 0.00 | 0.00 | 70 | 1007.8 |
| 20260506043319 | 3 | 309 | 8.0 | 16.1 | 0.00 | 0.00 | 0.00 | 70 | 1007.8 |
| 20260506041934 | 3 | 313 | 4.8 | 9.7 | 0.00 | 0.00 | 0.00 | 72 | 1007.7 |
| 20260506040604 | 3 | 313 | 3.2 | 11.3 | 0.00 | 0.00 | 0.00 | 73 | 1007.5 |
| 20260506040021 | 3 | 299 | 4.8 | 9.7 | 0.00 | 0.00 | 0.00 | 74 | 1007.5 |
| 20260506034702 | 2 | 298 | 4.8 | 8.0 | 0.00 | 0.00 | 0.00 | 76 | 1007.3 |
| 20260506033332 | 2 | 304 | 4.8 | 9.7 | 0.00 | 0.00 | 0.00 | 77 | 1007.2 |
| 20260506032449 | 2 | 271 | 3.2 | 8.0 | 0.00 | 0.00 | 0.00 | 77 | 1007.1 |
| 20260506031302 | 2 | 312 | 3.2 | 8.0 | 0.00 | 0.00 | 0.00 | 77 | 1007.0 |
| 20260506030032 | 1 | 274 | 3.2 | 6.4 | 0.00 | 0.00 | 0.00 | 78 | 1006.9 |
| 20260506025219 | 1 | 265 | 4.8 | 9.7 | 0.00 | 0.00 | 0.00 | 78 | 1006.8 |
| 20260506023842 | 1 | 266 | 4.8 | 9.7 | 0.00 | 0.00 | 0.00 | 79 | 1006.6 |
| 20260506023044 | 1 | 284 | 1.6 | 4.8 | 0.00 | 0.00 | 0.00 | 80 | 1006.6 |
| 20260506022344 | 1 | 276 | 1.6 | 4.8 | 0.00 | 0.00 | 0.00 | 80 | 1006.5 |
| 20260506021509 | 1 | 256 | 3.2 | 4.8 | 0.00 | 0.00 | 0.00 | 80 | 1006.5 |
| 20260506020936 | 1 | 268 | 1.6 | 3.2 | 0.00 | 0.00 | 0.00 | 80 | 1006.4 |
| 20260506015734 | 1 | 267 | 1.6 | 3.2 | 0.00 | 0.00 | 0.00 | 79 | 1006.2 |
| 20260506014729 | 1 | 295 | 1.6 | 4.8 | 0.00 | 0.00 | 0.00 | 79 | 1006.2 |
| 20260506013939 | 1 | 311 | 3.2 | 6.4 | 0.00 | 0.00 | 0.00 | 79 | 1006.2 |
| 20260506013224 | 1 | 307 | 4.8 | 9.7 | 0.00 | 0.00 | 0.00 | 79 | 1006.1 |
| 20260506012229 | 1 | 302 | 1.6 | 6.4 | 0.00 | 0.00 | 0.00 | 79 | 1006.1 |
| 20260506010906 | 1 | 280 | 1.6 | 3.2 | 0.00 | 0.00 | 0.00 | 78 | 1006.0 |
| 20260506010019 | 1 | 281 | 1.6 | 3.2 | 0.00 | 0.00 | 0.00 | 77 | 1006.0 |
| 20260506004549 | 1 | 280 | 3.2 | 6.4 | 0.00 | 0.00 | 0.00 | 77 | 1005.8 |
| 20260506003919 | 1 | 277 | 3.2 | 4.8 | 0.00 | 0.00 | 0.00 | 76 | 1005.7 |
| 20260506003149 | 1 | 305 | 3.2 | 8.0 | 0.00 | 0.00 | 0.00 | 76 | 1005.7 |
| 20260506002212 | 2 | 312 | 3.2 | 6.4 | 0.00 | 0.00 | 0.00 | 76 | 1005.6 |
| 20260506000739 | 2 | 304 | 4.8 | 9.7 | 0.00 | 0.00 | 0.00 | 75 | 1005.6 |
| 20260506000106 | 2 | 286 | 3.2 | 6.4 | 0.00 | 0.00 | 0.00 | 75 | 1005.6 |
| 20260505235519 | 2 | 292 | 3.2 | 6.4 | 0.00 | 0.00 | 0.00 | 75 | 1005.5 |
| 20260505234402 | 2 | 274 | 3.2 | 8.0 | 0.00 | 0.00 | 0.00 | 74 | 1005.5 |
| 20260505233809 | 2 | 285 | 3.2 | 9.7 | 0.00 | 0.00 | 0.00 | 74 | 1005.5 |
| 20260505232619 | 2 | 268 | 4.8 | 8.0 | 0.00 | 0.00 | 0.00 | 73 | 1005.4 |
| 20260505231659 | 2 | 266 | 4.8 | 8.0 | 0.00 | 0.00 | 0.00 | 72 | 1005.3 |
| 20260505231134 | 2 | 309 | 4.8 | 8.0 | 0.00 | 0.00 | 0.00 | 72 | 1005.3 |
| 20260505230359 | 2 | 284 | 4.8 | 9.7 | 0.00 | 0.00 | 0.00 | 72 | 1005.2 |
| 20260505225829 | 2 | 274 | 4.8 | 8.0 | 0.00 | 0.00 | 0.00 | 72 | 1005.2 |
| 20260505224332 | 3 | 297 | 3.2 | 8.0 | 0.00 | 0.00 | 0.00 | 71 | 1005.0 |
| 20260505222949 | 3 | 294 | 4.8 | 9.7 | 0.00 | 0.00 | 0.00 | 70 | 1004.9 |
| 20260505222122 | 3 | 305 | 4.8 | 9.7 | 0.00 | 0.00 | 0.00 | 70 | 1004.9 |
| 20260505220821 | 3 | 284 | 4.8 | 11.3 | 0.00 | 0.00 | 0.00 | 69 | 1004.8 |
| 20260505215502 | 3 | 287 | 4.8 | 16.1 | 0.00 | 0.00 | 0.00 | 68 | 1004.8 |
| 20260505214249 | 3 | 279 | 4.8 | 11.3 | 0.00 | 0.00 | 0.00 | 66 | 1004.8 |
| 20260505212814 | 3 | 255 | 6.4 | 12.9 | 0.00 | 0.00 | 0.00 | 65 | 1004.6 |
| 20260505212032 | 4 | 268 | 4.8 | 11.3 | 0.00 | 0.00 | 0.00 | 64 | 1004.5 |
| 20260505211421 | 4 | 271 | 4.8 | 12.9 | 0.00 | 0.00 | 0.00 | 63 | 1004.5 |
| 20260505210829 | 4 | 274 | 4.8 | 9.7 | 0.00 | 0.00 | 0.00 | 63 | 1004.5 |
| 20260505205912 | 4 | 264 | 4.8 | 9.7 | 0.00 | 0.00 | 0.00 | 62 | 1004.4 |
| 20260505204712 | 4 | 275 | 4.8 | 11.3 | 0.00 | 0.00 | 0.00 | 61 | 1004.3 |
| 20260505203914 | 5 | 285 | 3.2 | 8.0 | 0.00 | 0.00 | 0.00 | 61 | 1004.1 |
| 20260505202622 | 5 | 285 | 6.4 | 9.7 | 0.00 | 0.00 | 0.00 | 59 | 1003.9 |
| 20260505201449 | 5 | 275 | 3.2 | 8.0 | 0.00 | 0.00 | 0.00 | 59 | 1003.9 |
| 20260505200551 | 5 | 293 | 3.2 | 9.7 | 0.00 | 0.00 | 0.00 | 58 | 1003.8 |
| 20260505195129 | 5 | 290 | 4.8 | 12.9 | 0.00 | 0.00 | 0.00 | 55 | 1003.7 |
| 20260505193949 | 5 | 277 | 8.0 | 17.7 | 0.00 | 0.00 | 0.00 | 53 | 1003.6 |
| 20260505192959 | 6 | 273 | 6.4 | 12.9 | 0.00 | 0.00 | 0.00 | 51 | 1003.6 |
| 20260505191842 | 6 | 270 | 6.4 | 16.1 | 0.00 | 0.00 | 0.00 | 48 | 1003.5 |
| 20260505190912 | 6 | 268 | 4.8 | 12.9 | 0.00 | 0.00 | 0.00 | 47 | 1003.4 |
| 20260505190004 | 6 | 275 | 6.4 | 12.9 | 0.00 | 0.00 | 0.00 | 46 | 1003.3 |
| 20260505185305 | 6 | 269 | 6.4 | 14.5 | 0.00 | 0.00 | 0.00 | 45 | 1003.3 |
| 20260505184714 | 6 | 277 | 6.4 | 12.9 | 0.00 | 0.00 | 0.00 | 45 | 1003.2 |
| 20260505184129 | 7 | 284 | 8.0 | 16.1 | 0.00 | 0.00 | 0.00 | 44 | 1003.2 |
| 20260505183249 | 7 | 263 | 9.7 | 19.3 | 0.00 | 0.00 | 0.00 | 43 | 1003.0 |
| 20260505182214 | 7 | 274 | 6.4 | 19.3 | 0.00 | 0.00 | 0.00 | 43 | 1002.9 |
| 20260505181109 | 7 | 263 | 3.2 | 8.0 | 0.00 | 0.00 | 0.00 | 43 | 1002.8 |
| 20260505175919 | 7 | 296 | 6.4 | 19.3 | 0.00 | 0.00 | 0.00 | 41 | 1002.7 |
| 20260505175319 | 8 | 261 | 8.0 | 22.5 | 0.00 | 0.00 | 0.00 | 41 | 1002.7 |
| 20260505174404 | 8 | 294 | 9.7 | 17.7 | 0.00 | 0.00 | 0.00 | 41 | 1002.6 |
| 20260505173222 | 8 | 271 | 6.4 | 11.3 | 0.00 | 0.00 | 0.00 | 41 | 1002.5 |
| 20260505172306 | 8 | 258 | 4.8 | 19.3 | 0.00 | 0.00 | 0.00 | 40 | 1002.5 |
| 20260505171051 | 8 | 279 | 9.7 | 20.9 | 0.00 | 0.00 | 0.00 | 40 | 1002.4 |
| 20260505170232 | 8 | 285 | 8.0 | 17.7 | 0.00 | 0.00 | 0.00 | 40 | 1002.4 |
| 20260505164802 | 9 | 273 | 12.9 | 25.7 | 0.00 | 0.00 | 0.00 | 39 | 1002.2 |
| 20260505164122 | 9 | 269 | 12.9 | 22.5 | 0.00 | 0.00 | 0.00 | 38 | 1002.2 |
| 20260505162634 | 10 | 302 | 8.0 | 19.3 | 0.00 | 0.00 | 0.00 | 37 | 1002.3 |
| 20260505161829 | 10 | 258 | 8.0 | 17.7 | 0.00 | 0.00 | 0.00 | 34 | 1002.2 |
| 20260505161209 | 10 | 296 | 9.7 | 17.7 | 0.00 | 0.00 | 0.00 | 32 | 1002.0 |
| 20260505160521 | 10 | 294 | 12.9 | 32.2 | 0.00 | 0.00 | 0.00 | 30 | 1002.1 |
| 20260505152909 | 11 | 282 | 9.7 | 24.1 | 0.00 | 0.00 | 0.00 | 34 | 1002.0 |
| 20260505151421 | 11 | 270 | 8.0 | 19.3 | 0.00 | 0.00 | 0.00 | 31 | 1001.7 |
| 20260505150342 | 11 | 271 | 8.0 | 20.9 | 0.00 | 0.00 | 0.00 | 32 | 1001.7 |
| 20260505140129 | 12 | 270 | 9.7 | 22.5 | 0.00 | 0.00 | 0.00 | 33 | 1001.5 |
| 20260505124039 | 10 | 299 | 8.0 | 17.7 | 0.00 | 0.00 | 0.00 | 45 | 1001.1 |
| 20260505123151 | 10 | 288 | 6.4 | 17.7 | 0.00 | 0.00 | 0.00 | 48 | 1001.0 |
| 20260505121832 | 10 | 315 | 11.3 | 22.5 | 0.00 | 0.00 | 0.00 | 46 | 1001.0 |
| 20260505120819 | 11 | 286 | 6.4 | 16.1 | 0.00 | 0.00 | 0.00 | 41 | 1000.8 |
| 20260505115832 | 11 | 296 | 11.3 | 22.5 | 0.00 | 0.00 | 0.00 | 39 | 1000.8 |
| 20260505114806 | 11 | 309 | 11.3 | 20.9 | 0.00 | 0.00 | 0.00 | 44 | 1000.6 |
| 20260505113421 | 11 | 325 | 19.3 | 32.2 | 0.00 | 0.00 | 0.00 | 43 | 1000.3 |
| 20260505112519 | 12 | 306 | 14.5 | 32.2 | 0.00 | 0.00 | 0.00 | 40 | 1000.2 |
| 20260505111522 | 11 | 288 | 8.0 | 16.1 | 0.00 | 0.00 | 0.00 | 41 | 1000.2 |
| 20260505110239 | 11 | 312 | 12.9 | 30.6 | 0.00 | 0.00 | 0.00 | 46 | 1000.1 |
| 20260505101614 | 11 | 313 | 12.9 | 25.7 | 0.00 | 0.00 | 0.00 | 47 | 999.3 |
| 20260505100854 | 12 | 316 | 11.3 | 24.1 | 0.00 | 0.00 | 0.00 | 46 | 999.2 |
| 20260505095654 | 11 | 304 | 14.5 | 30.6 | 0.00 | 0.00 | 0.00 | 46 | 999.0 |
| 20260505094549 | 11 | 301 | 16.1 | 40.2 | 0.00 | 0.00 | 0.00 | 51 | 998.9 |
| 20260505093924 | 11 | 304 | 9.7 | 20.9 | 0.00 | 0.00 | 0.00 | 52 | 998.8 |
| 20260505092809 | 12 | 263 | 4.8 | 12.9 | 0.00 | 0.00 | 0.00 | 51 | 998.7 |
| 20260505091554 | 11 | 312 | 8.0 | 17.7 | 0.00 | 0.00 | 0.00 | 56 | 998.5 |
| 20260505090859 | 10 | 240 | 3.2 | 14.5 | 0.00 | 0.00 | 0.00 | 65 | 998.6 |
| 20260505090349 | 11 | 201 | 9.7 | 22.5 | 0.00 | 0.00 | 0.00 | 62 | 998.2 |
| 20260505085736 | 11 | 189 | 16.1 | 33.8 | 0.00 | 0.00 | 0.00 | 60 | 998.0 |
| 20260505084951 | 11 | 184 | 16.1 | 30.6 | 0.00 | 0.00 | 0.00 | 60 | 997.9 |